Regional Weather Roundup
Issued by NWS

Home | Current Version | Previous Version | Graphics & Text | Print | Product List | Glossary On
Versions: 1 2 3 4 5 6 7 8 9 10 11 12 13 14 15 16 17 18 19 20 21 22 23 24 25 26 27 28 29 30 31 32 33 34 35 36 37 38 39 40 41 42 43 44 45 46 47 48 49 50
000
ASUS45 KPSR 231910
RWRAZ

ARIZONA REGIONAL HOURLY WEATHER ROUNDUP
NATIONAL WEATHER SERVICE PHOENIX AZ
1200 PM MST WED APR 23 2014

NOTE: FAIR INDICATES FEW OR NO CLOUDS BELOW 12,000 FEET WITH NO
SIGNIFICANT WEATHER AND/OR OBSTRUCTIONS TO VISIBILITY.

AZZ001>003-036-232000-
NORTHWEST ARIZONA

CITY           SKY/WX    TMP DP  RH WIND       PRES   REMARKS
BULLHEAD CITY  SUNNY     75  14   9 N23G29    29.90S
KINGMAN        SUNNY     67   1   7 N20G28    29.96R
$$

AZZ004>008-015-016-018-232000-
NORTH CENTRAL ARIZONA

CITY           SKY/WX    TMP DP  RH WIND       PRES   REMARKS
GRAND CANYON   PTSUNNY   55   8  15 W13G22    29.99R
WILLIAMS       MOSUNNY   54   7  15 N8        30.07R
PRESCOTT       SUNNY     66   6   9 N14G24    29.94S
FLAGSTAFF      MOSUNNY   57   6  13 SW21      29.97S
PAYSON         PTSUNNY   64  14  14 W8G18     29.95S
PAGE           PTSUNNY   60  17  18 VRB7      29.92F
$$

AZZ009>014-017-232000-
NORTHEAST ARIZONA

CITY           SKY/WX    TMP DP  RH WIND       PRES   REMARKS
WINSLOW        CLOUDY    68  14  12 W14G28    29.89S
SAINT JOHNS    SUNNY     68  14  12 SW20G35   29.87F
WINDOW ROCK    SUNNY     63  14  15 SW18G32   29.89F
SHOW LOW       MOSUNNY   59   7  12 SW22G33   29.96F
$$

AZZ023-232000-
GREATER PHOENIX AREA

CITY           SKY/WX    TMP DP  RH WIND       PRES   REMARKS
PHOENIX        MOSUNNY   80  14   8 W14       29.81S
BUCKEYE          N/A     79  12   8 W12       29.84S
GLENDALE       MOSUNNY   79  19  11 SW14G21   29.85R
LUKE AFB       NOT AVBL
DEER VALLEY    SUNNY     78  14   9 SW14G20   29.83S
SCOTTSDALE     SUNNY     78  17  10 SW10G17   29.85S
MESA-GATEWAY   MOSUNNY   79  16   9 NW10      29.84F
CHANDLER       MOSUNNY   79  19  11 SW7       29.83S
$$

AZZ027-028-232000-
SOUTHWEST MARICOPA COUNTY AND PINAL COUNTY

CITY           SKY/WX    TMP DP  RH WIND       PRES   REMARKS
CASA GRANDE    SUNNY     79  16   9 SW8       29.84F
GILA BEND      PTCLDY    81  18   9 SW15G21   29.85F
$$

AZZ503-504-507>509-232000-
SOUTHEAST ARIZONA

CITY           SKY/WX    TMP DP  RH WIND       PRES   REMARKS
TUCSON         SUNNY     83  24  11 W12G21    29.86F
DAVIS-MONTHAN  SUNNY     82  27  13 NW16G25   29.85F
NOGALES        SUNNY     79  26  14 W14G22    29.93F
SIERRA VISTA   MOSUNNY   75  21  13 W17G25    29.94F
DOUGLAS        SUNNY     79  21  11 SW16G23   29.91F
SAFFORD        SUNNY     79  25  13 VRB6      29.82F
$$

AZZ020-021-025-026-031-232000-
SOUTHWEST ARIZONA

CITY           SKY/WX    TMP DP  RH WIND       PRES   REMARKS
YUMA           MOSUNNY   84  13   7 NW7       29.85F
$$

CAZ031-033-041-043-047-048-061-232000-
SOUTHERN CALIFORNIA

CITY           SKY/WX    TMP DP  RH WIND       PRES   REMARKS
DOWNTOWN L.A.  MOSUNNY   69  46  43 CALM      29.96S
L.A. AIRPORT   PTSUNNY   68  48  48 W12       29.97S
SAN DIEGO      PTSUNNY   66  49  54 W9        29.99S
BURBANK        MOSUNNY   70  37  29 VRB6      29.95F
ONTARIO        PTSUNNY   66  46  48 SW8       29.95F
RIVERSIDE      PTSUNNY   66  45  46 CALM      29.95F
PALM SPRINGS   PTSUNNY   79  27  14 NW10      29.91S
EL CENTRO NAS  MOSUNNY   81  25  12 W7        29.86S
IMPERIAL       SUNNY     81  28  14 N10       29.86S
BLYTHE         MOSUNNY   81  14   8 N14G21    29.87S
NEEDLES        SUNNY     80   8   6 NE22      29.89S
$$

NVZ020-UTZ003-232000-
SOUTHERN NEVADA-UTAH

CITY           SKY/WX    TMP DP  RH WIND       PRES   REMARKS
LAS VEGAS      SUNNY     72  12  10 N14G20    29.92F
SALT LAKE CITY MOSUNNY   47  25  42 W8        30.05R
$$

NMZ009-TXZ055-232000-
NEW MEXICO-WEST TEXAS

CITY           SKY/WX    TMP DP  RH WIND       PRES   REMARKS
ALBUQUERQUE    MOSUNNY   71  19  14 W14G21    29.84F
EL PASO        MOSUNNY   81  23  11 W25G31    29.86F
$$


........................KEY........................
SKY/WX - SKY CONDITION/WEATHER
TMP    - TEMPERATURE IN FAHRENHEIT
DP     - DEW POINT IN FAHRENHEIT
RH     - RELATIVE HUMIDITY IN PERCENT
WIND   - DIRECTION AND SPEED IN MILES PER HOUR (MPH)
VRB    - VARIABLE WIND DIRECTION
PRES   - MEAN SEA LEVEL PRESSURE IN INCHES OF MERCURY
         F - FALLING PRESSURE   R - RISING PRESSURE
         S - STEADY PRESSURE
VSB    - VISIBILITY IN MILES
HX     - HEAT INDEX IN FAHRENHEIT
WCI    - WIND CHILL INDEX IN FAHRENHEIT
TC     - TEMPERATURE IN CELSIUS WHICH IS ALSO KNOWN AS
         TEMPERATURE IN CENTIGRADE
AFB    - AIR FORCE BASE
         LUKE AFB IS LUKE AIR FORCE BASE
         DAVIS-MONTHAN IS DAVIS-MONTHAN AIR FORCE BASE
NAS    - NAVAL AIR STATION
         EL CENTRO NAS IS EL CENTRO NAVAL AIR STATION
N/A    - NOT AVAILABLE



USA.gov is the U.S. government's official web portal to all federal, state and local government web resources and services.